Home > Weather > Florø > Past weeks

Flag for Norway Past Weather in Florø, Norway — Yesterday and Last 2 Weeks

Now
54 °F

Partly cloudy.


Feels Like: 50 °F
Forecast: 52 / 58 °F
Wind: 13 mph from Southeast

Location: Floro

Current Time: Jul 1, 2016 at 4:44:05 AM

Latest Report: Jul 1, 2016 at 3:50 AM


Visibility: N/A

Pressure: 29.62 "Hg

Humidity: 82%

Dew Point: 48 °F

Location of FlorøLocation

Past Weather in Florø — Graph

°F

Florø Temperature Yesterday

Maximum temperature yesterday: 63 °F (at 1:20 PM)
Minimum temperature yesterday: 52 °F (at 5:50 PM)
Average temperature yesterday: 55 °F

High & Low Weather Summary for the Past Weeks

 TemperatureHumidityPressure
High70 °F (Jun 17, 6:20 PM)100% (Jun 23, 11:50 PM)30.12 "Hg (Jun 23, 11:50 PM)
Low46 °F (Jun 19, 5:20 AM)50% (Jun 17, 6:20 PM)29.39 "Hg (Jun 30, 12:50 PM)
Average56 °F81%29.82 "Hg
* Reported Jun 16 3:20 AM — Jul 1 3:20 AM, Florø, Weather by CustomWeather, © 2016

Note: Actual official high and low records may vary slightly from our data, if they occured in-between our weather recording intervals... More about our weather records

Advertising

Florø Weather History for the Previous 24 Hours

Scroll right to see more
 ConditionsComfort  
Time TempWeatherWind HumidityBarometerVisibility
3:20 AM
Fri, Jul 1
54 °FPartly cloudy.12 mph82%29.62 "HgN/A
2:50 AM54 °FMostly cloudy.9 mph82%29.62 "HgN/A
2:20 AM54 °FPassing clouds.12 mph82%29.62 "HgN/A
1:50 AM54 °FPartly cloudy.12 mph82%29.62 "HgN/A
1:20 AM54 °FPartly cloudy.14 mph82%29.62 "HgN/A
12:50 AM54 °FPassing clouds.13 mph82%29.62 "HgN/A
12:20 AM54 °FPartly sunny.16 mph88%29.62 "HgN/A
11:50 PM
Thu, Jun 30
54 °FOvercast.16 mph88%29.62 "HgN/A
11:20 PM54 °FBroken clouds.17 mph88%29.62 "HgN/A
10:50 PM54 °FSprinkles. Partly sunny.16 mph88%29.62 "HgN/A
10:20 PM54 °FBroken clouds.20 mph88%29.62 "HgN/A
9:50 PM55 °FMostly cloudy.15 mph82%29.62 "HgN/A
9:20 PM55 °FPartly sunny.16 mph88%29.62 "HgN/A
8:50 PM55 °FMostly cloudy.18 mph88%29.59 "HgN/A
8:20 PM54 °FSprinkles. Broken clouds.17 mph94%29.59 "HgN/A
7:20 PM52 °FSprinkles. Broken clouds.20 mph94%29.59 "HgN/A
6:50 PM52 °FLight rain. Broken clouds.17 mph94%29.56 "Hg6 mi
6:20 PM52 °FRain. Broken clouds.25 mph94%29.53 "HgN/A
5:50 PM52 °FHeavy rain. Broken clouds.40 mph94%29.47 "Hg1 mi
5:20 PM54 °FRain. Broken clouds.29 mph88%29.47 "Hg2 mi
4:50 PM55 °FSprinkles. Partly sunny.33 mph77%29.47 "HgN/A
4:20 PM57 °FScattered showers. Broken clouds.33 mph72%29.45 "HgN/A
3:50 PM55 °FScattered showers. Broken clouds.26 mph77%29.45 "HgN/A
3:20 PM54 °FRain showers. Broken clouds.21 mph88%29.45 "Hg3 mi
2:50 PM57 °FSprinkles. Broken clouds.6 mph82%29.42 "HgN/A
2:20 PM55 °FSprinkles. Broken clouds.8 mph88%29.42 "HgN/A
1:50 PM59 °FSprinkles. Broken clouds.13 mph72%29.42 "HgN/A
1:20 PM63 °FScattered showers. Partly sunny.8 mph64%29.39 "HgN/A
12:50 PM61 °FSprinkles. Partly sunny.9 mph63%29.39 "HgN/A
12:20 PM61 °FScattered showers. Partly sunny.10 mph68%29.42 "HgN/A
11:50 AM59 °FBroken clouds.9 mph72%29.42 "HgN/A
11:20 AM59 °FBroken clouds.5 mph77%29.42 "HgN/A
10:50 AM55 °FBroken clouds.3 mph88%29.45 "HgN/A
10:20 AM55 °FLight rain. Broken clouds.2 mph88%29.45 "HgN/A
9:50 AM55 °FLight rain. Broken clouds.3 mph88%29.47 "HgN/A
9:20 AM55 °FLight rain. Broken clouds.5 mph88%29.47 "HgN/A
8:50 AM55 °FScattered showers. Broken clouds.6 mph82%29.47 "HgN/A
8:20 AM55 °FScattered showers. Broken clouds.7 mph82%29.47 "HgN/A
7:50 AM55 °FLight rain. Partly sunny.7 mph82%29.47 "HgN/A
7:20 AM54 °FScattered showers. Broken clouds.7 mph88%29.47 "HgN/A
6:50 AM54 °FBroken clouds.6 mph88%29.50 "HgN/A
6:20 AM54 °FScattered showers. Broken clouds.6 mph88%29.53 "HgN/A
5:50 AM54 °FScattered showers. Broken clouds.6 mph88%29.53 "HgN/A
5:20 AM55 °FSprinkles. Cloudy.5 mph82%29.53 "HgN/A
4:50 AM55 °FMostly cloudy.7 mph82%29.53 "HgN/A
4:20 AM55 °FOvercast.8 mph82%29.53 "HgN/A
Weather by CustomWeather, © 2016

See weather overviewHow to use our weather pages